Location: Gettysburg
(39.8310°N, 77.2310°W)
Time: 06:58:15
(UTC-04:00)

Envisat - Pass Details

Date: 30 May 2023
Orbit: 763 x 764 km, 98.2° (Epoch: 21 September)

Event Time Altitude Azimuth Distance (km) Brightness Sun altitude
Rises 04:18:55 0° 22° (NNE) 3,235 7.6 -13.8°
Reaches altitude 10° 04:21:26 10° 32° (NNE) 2,305 6.8 -13.5°
Maximum altitude 04:26:01 33° 97° (E) 1,256 4.5 -12.8°
Drops below altitude 10° 04:30:34 10° 161° (SSE) 2,291 5.2 -12.2°
Sets 04:33:03 0° 171° (S) 3,213 5.9 -11.8°
